TimeEDT,TemperatureF,Dew PointF,Humidity,Sea Level PressureIn,VisibilityMPH,Wind Direction,Wind SpeedMPH,Gust SpeedMPH,PrecipitationIn,Events,Conditions,WindDirDegrees,DateUTC
12:53 AM,48.0,32.0,54,29.84,10.0,West,9.2,-,N/A,,Clear,280,2012-10-30 04:53:00
1:53 AM,46.9,32.0,56,29.83,10.0,West,10.4,-,N/A,,Clear,280,2012-10-30 05:53:00
3:53 AM,45.0,30.0,56,29.83,10.0,West,9.2,-,N/A,,Clear,280,2012-10-30 07:53:00
4:53 AM,44.1,30.0,58,29.83,10.0,West,10.4,-,N/A,,Clear,280,2012-10-30 08:53:00
5:53 AM,43.0,30.9,62,29.84,10.0,West,9.2,-,N/A,,Clear,270,2012-10-30 09:53:00
7:53 AM,42.1,30.0,62,29.87,10.0,West,9.2,-,N/A,,Clear,280,2012-10-30 11:53:00
8:53 AM,46.0,30.0,54,29.89,10.0,West,12.7,-,N/A,,Clear,270,2012-10-30 12:53:00
9:53 AM,48.9,30.0,48,29.89,10.0,West,16.1,23.0,N/A,,Clear,280,2012-10-30 13:53:00
10:53 AM,55.0,28.9,37,29.88,10.0,West,15.0,19.6,N/A,,Clear,260,2012-10-30 14:53:00
11:53 AM,57.9,26.1,30,29.88,10.0,West,12.7,29.9,N/A,,Clear,270,2012-10-30 15:53:00
12:53 PM,61.0,24.1,24,29.86,10.0,WNW,19.6,26.5,N/A,,Clear,290,2012-10-30 16:53:00
1:53 PM,63.0,24.1,23,29.83,10.0,West,12.7,23.0,N/A,,Clear,270,2012-10-30 17:53:00
2:53 PM,64.0,27.0,25,29.82,10.0,West,15.0,23.0,N/A,,Clear,270,2012-10-30 18:53:00
3:53 PM,63.0,28.0,27,29.82,10.0,WSW,17.3,24.2,N/A,,Clear,240,2012-10-30 19:53:00
4:53 PM,63.0,28.9,28,29.82,10.0,WSW,16.1,23.0,N/A,,Clear,250,2012-10-30 20:53:00
5:53 PM,61.0,30.0,31,29.83,10.0,WSW,16.1,26.5,N/A,,Clear,250,2012-10-30 21:53:00
6:53 PM,55.9,30.0,37,29.85,10.0,West,9.2,-,N/A,,Clear,260,2012-10-30 22:53:00
7:53 PM,53.1,33.1,47,29.87,10.0,WSW,8.1,-,N/A,,Clear,250,2012-10-30 23:53:00
8:53 PM,52.0,34.0,50,29.89,10.0,West,9.2,-,N/A,,Clear,260,2012-10-31 00:53:00
9:53 PM,53.1,35.1,50,29.91,10.0,West,9.2,-,N/A,,Clear,280,2012-10-31 01:53:00
10:53 PM,53.1,35.1,50,29.94,10.0,West,9.2,-,N/A,,Clear,280,2012-10-31 02:53:00
11:53 PM,54.0,35.1,49,29.95,10.0,WNW,10.4,-,N/A,,Clear,290,2012-10-31 03:53:00